User: anonymous   Login
Location: Newark
(44.1906°N, 75.9681°W)
Time: 19:12:17
(UTC+00:00)
Language:

Envisat - Orbit

View from above orbital plane
View from above orbital plane
View from above satellite
View from above satellite

Ground track
Ground track

The orbit data is extracted from the following two-line orbital elements,

1 27386U 02009A   20048.07268906  .00000015  00000-0  18384-4 0  9993
2 27386  98.1400  61.4846 0001182  93.4181 333.1200 14.37971568941172
Epoch (UTC): 17 February 2020 01:44:40
Eccentricity: 0.0001182
inclination: 98.1400°
perigee height: 764 km
apogee height: 766 km
right ascension of ascending node: 61.4846°
argument of perigee: 93.4181°
revolutions per day: 14.37971568
mean anomaly at epoch: 333.1200°
orbit number at epoch: 94117

The dashed part of the orbit path shows where the satellite is in the earth's shadow,  

DLR